Regional Weather Roundup
Issued by NWS Newport/Morehead, NC

Current Version | Previous Version | Graphics & Text | Print | Product List | Glossary Off
Versions: 1 2 3 4 5 6 7 8 9 10 11 12 13 14 15 16 17 18 19 20 21 22 23 24 25 26 27 28 29 30 31 32 33 34 35 36 37 38 39 40 41 42 43 44 45 46 47 48 49 50

000
ASUS42 KMHX 301510
RWRMHX
WEATHER ROUNDUP FOR EASTERN NORTH CAROLINA
NATIONAL WEATHER SERVICE NEWPORT/MOREHEAD CITY NC
1000 AM EST FRI JAN 30 2015

NOTE: "FAIR" INDICATES FEW OR NO CLOUDS BELOW 12,000 FEET
WITH NO SIGNIFICANT WEATHER AND/OR OBSTRUCTIONS TO VISIBILITY

NCZ015>017-031-032-045>047-102-103-301600-
NORTH COAST

CITY           SKY/WX    TMP DP  RH WIND       PRES   REMARKS
EDENTON        PTSUNNY   44  37  76 N13       30.01R
ELIZABETH CITY CLOUDY    40  37  89 NW6       30.01R
KITTY HAWK     LGT RAIN  38  38  99 N8G21     29.98R
MANTEO         LGT RAIN  37  36  93 N14G24    30.00R

$$

NCZ045>047-081-094-103-104-301600-
CENTRAL COAST

CITY           SKY/WX    TMP DP  RH WIND       PRES   REMARKS
FRISCO         CLOUDY    43  38  82 N9G21     29.97R
SWANQUARTER    NOT AVBL

$$

NCZ095-097-098-100-101-301600-
SOUTHERN COAST

CITY           SKY/WX    TMP DP  RH WIND       PRES   REMARKS
BEAUFORT       CLOUDY    46  36  68 N22G28    30.01R
CEDAR ISLAND   NOT AVBL
JACKSONVILLE   MOSUNNY   49  32  52 N20G30    30.03R
PINEY ISLAND     N/A    N/A N/A N/A MISG      30.00R
WILMINGTON     MOSUNNY   50  33  52 N16G25    30.04R


$$

NCZ011>013-027>030-043-044-078>080-089-090>093-098-301600-
COASTAL PLAIN

CITY           SKY/WX    TMP DP  RH WIND       PRES   REMARKS
AHOSKIE        CLOUDY    42  32  68 NW6       30.03S
CLINTON        MOSUNNY   47  29  50 NW14G31   30.08R
ELIZABETHTOWN  MOSUNNY   48  29  48 N8        30.07R
GOLDSBORO      MOSUNNY   46  32  57 N17G32    30.04R
GREENVILLE     MOSUNNY   46  30  53 N12G23    30.05R
HAVELOCK       CLOUDY    47  35  63 N21G29    30.02R
KENANSVILLE    MOSUNNY   46  30  52 NW8G21    30.06R
KINSTON        MOSUNNY   46  32  57 NW15G21   30.05R
NEW BERN       CLOUDY    48  33  56 N14G26    30.03R
RICHLANDS      CLOUDY    46  28  49 N9G22     30.05R
ROCKY MOUNT    SUNNY     47  23  38 NW16G35   30.06R
WASHINGTON     MOSUNNY   44  33  65 NW10G20   30.02R
WHITEVILLE     MOSUNNY   49  31  51 NW6G17    30.07R

$$

AMZ130-135-150-152-154-156-158-170-250-252-270-ANZ085-086-088-633-658-670-301600-
MARINE OBSERVATIONS

STATION/POSITION TIME  TEMP    WIND        PRES    WAVE   SWELL
                       AIR SEA DIR/SP/G            HT/PER HT/PER
                 (UTC) (F)     (DEG/KT/KT) (MB)    (FT/S) (FT/S)
CHESAPEAKE LIGHT 1400   40     330/ 11/ 12 1015.8
64 E VA BEACH    1500   40 49  350/ 23/ 27 1014.3    4/ 4   2/11
DUCK             1500   38 44   20/ 11/ 14 1014.9
2 E DUCK         1500      43                N/A     2/ 3
10 NE DUCK       1500      44                N/A     3/11   2/11
OREGON INLET     1500   39 42  350/ 14/ 21 1014.8
13E OREGON INLT  1500      43                N/A     4/ 4   2/11
HATTERAS CG      1500   44 46  330/ 21/ 24 1015.1
DIAMOND BUOY     1500   48 68  320/ 23/ 27 1014.3    6/ 7   3/11
17 S OCRACOKE    NOT AVBL
CAPE LOOKOUT     1400   48     330/ 15/ 18 1014.8
BEAUFORT LAB     1500   45 47  340/ 15/ 23 1015.1
27 SE WRIGHTSVLE NOT AVBL
5 SE WRIGHTSVLE  1400   50 52  340/ 17/ 21 1016.2
225 S CAPE HAT   1436   67 72  230/ 27/ 31 1015.2    7/ 6   2/10
41 SE CHARLESTON 1500   57 68  320/ 23/ 29 1017.6    5/ 6   2/ 9

$$



USA.gov is the U.S. government's official web portal to all federal, state and local government web resources and services.